Tulsa, OK

9:10 PM CST on February 18, 2018 (GMT -0600)
Tulsa International

Weather History for KTUL - April, 2013

Change the Weather History Date:

Wednesday, April 17, 2013

  Actual Average Record
Temperature  
Mean Temperature 67 °F 61 °F  
Max Temperature 82 °F 72 °F 95 °F (2006)
Min Temperature 51 °F 50 °F 28 °F (1921)
Degree Days  
Heating Degree Days 0 6  
Month to date heating degree days 173 132  
Since 1 July heating degree days 3380 3481  
Cooling Degree Days 2 2  
Month to date cooling degree days 11 23  
Year to date cooling degree days 17 35  
Growing Degree Days 16 (Base 50)    
Moisture  
Dew Point 59 °F    
Average Humidity 79    
Maximum Humidity 100    
Minimum Humidity 58    
Precipitation  
Precipitation 0.64 in 0.12 in 1.75 in (1953)
Month to date precipitation 2.65 1.88  
Year to date precipitation 8.47 8.68  
Sea Level Pressure  
Sea Level Pressure 29.75 in    
Wind  
Wind Speed 13 mph (SSE)    
Max Wind Speed 30 mph    
Max Gust Speed 38 mph    
Visibility 7 miles    
Events Rain , Thunderstorm    
T = Trace of Precipitation, MM = Missing Value Source: NWS Daily Summary

Daily Weather History Graph

Daily Weather History Graph

Search for Another Location

Airport or City:

Trip Planner

Search our weather history database for the weather conditions in past years. The results will help you decide how hot, cold, wet, or windy it might be!

Date:

Astronomy

Apr. 17, 2013 Rise Set
Actual Time 6:47 AM CDT 7:59 PM CDT
Civil Twilight 6:20 AM CDT 8:26 PM CDT
Nautical Twilight 5:48 AM CDT 8:57 PM CDT
Astronomical Twilight 5:15 AM CDT 9:30 PM CDT
Moon 12:05 PM CDT (4/17) 1:34 AM CDT (4/17)
Length of Visible Light 14h 05m
Length of Day
13h 12m
Waxing Crescent, 42% of the Moon is Illuminated
Apr 17
Waxing Crescent
Apr 18
First Quarter
Apr 25
Full
May 2
Last Quarter
May 9
New

Hourly Weather History & Observations

Time (CDT) Temp. Heat Index Dew Point Humidity Pressure Visibility Wind Dir Wind Speed Gust Speed Precip Events Conditions
12:53 AM 52.0 °F - 48.0 °F 86% 29.93 in 9.0 mi North 9.2 mph - N/A   Overcast
1:53 AM 52.0 °F - 48.0 °F 86% 29.92 in 9.0 mi North 8.1 mph - N/A   Overcast
2:53 AM 52.0 °F - 48.0 °F 86% 29.90 in 9.0 mi North 4.6 mph - N/A   Mostly Cloudy
3:53 AM 51.1 °F - 48.0 °F 89% 29.89 in 8.0 mi North 5.8 mph - N/A   Partly Cloudy
4:29 AM 52.0 °F - 48.9 °F 89% 29.88 in 8.0 mi NE 4.6 mph - N/A   Mostly Cloudy
4:53 AM 52.0 °F - 48.9 °F 89% 29.87 in 8.0 mi North 5.8 mph - N/A   Overcast
5:53 AM 52.0 °F - 48.9 °F 89% 29.85 in 8.0 mi East 3.5 mph - N/A   Mostly Cloudy
6:08 AM 52.0 °F - 48.9 °F 89% 29.85 in 8.0 mi Calm Calm - N/A   Scattered Clouds
6:24 AM 51.1 °F - 48.9 °F 92% 29.84 in 8.0 mi ESE 3.5 mph - N/A   Mostly Cloudy
6:53 AM 54.0 °F - 50.0 °F 86% 29.83 in 8.0 mi Calm Calm - N/A   Overcast
7:53 AM 54.0 °F - 50.0 °F 86% 29.85 in 5.0 mi WNW 3.5 mph - N/A   Overcast
8:20 AM 55.0 °F - 52.0 °F 89% 29.85 in 3.0 mi East 3.5 mph - 0.00 in Rain Light Rain
8:39 AM 55.9 °F - 54.0 °F 93% 29.85 in 2.5 mi ESE 5.8 mph - 0.00 in   Overcast
8:47 AM 57.2 °F - 55.4 °F 94% 29.84 in 3.0 mi SE 8.1 mph - 0.00 in   Overcast
8:53 AM 60.8 °F - 57.2 °F 88% 29.84 in 3.0 mi SE 6.9 mph - N/A   Overcast
9:53 AM 73.0 °F - 68.0 °F 84% 29.81 in 5.0 mi South 13.8 mph 20.7 mph N/A   Overcast
10:53 AM 75.0 °F - 68.0 °F 79% 29.81 in 7.0 mi South 18.4 mph 27.6 mph N/A   Overcast
11:44 AM 75.9 °F - 68.0 °F 76% 29.80 in 7.0 mi South 21.9 mph 32.2 mph N/A   Mostly Cloudy
11:53 AM 77.0 °F - 68.0 °F 74% 29.78 in 7.0 mi South 23.0 mph 31.1 mph N/A   Mostly Cloudy
12:53 PM 78.1 °F - 66.9 °F 68% 29.76 in 8.0 mi South 17.3 mph 29.9 mph N/A   Overcast
1:11 PM 78.1 °F - 66.0 °F 66% 29.76 in 8.0 mi South 23.0 mph 34.5 mph N/A   Overcast
1:53 PM 78.1 °F - 66.0 °F 66% 29.73 in 8.0 mi South 24.2 mph 32.2 mph N/A   Mostly Cloudy
2:53 PM 81.0 °F 83.0 °F 66.0 °F 60% 29.69 in 8.0 mi SSE 21.9 mph 33.4 mph N/A   Mostly Cloudy
3:53 PM 81.0 °F 83.0 °F 66.0 °F 60% 29.65 in 9.0 mi SSE 18.4 mph 33.4 mph N/A   Overcast
4:53 PM 81.0 °F 82.7 °F 64.9 °F 58% 29.64 in 9.0 mi South 24.2 mph 36.8 mph N/A   Mostly Cloudy
5:53 PM 80.1 °F 81.9 °F 64.9 °F 60% 29.63 in 9.0 mi South 24.2 mph 29.9 mph N/A   Overcast
6:53 PM 79.0 °F - 64.0 °F 60% 29.61 in 9.0 mi South 12.7 mph 23.0 mph N/A   Overcast
7:53 PM 79.0 °F - 64.0 °F 60% 29.58 in 9.0 mi SSE 16.1 mph 24.2 mph N/A   Overcast
8:27 PM 78.1 °F - 64.0 °F 62% 29.59 in 9.0 mi South 16.1 mph - 0.00 in Rain , Thunderstorm Light Thunderstorms and Rain
8:53 PM 77.0 °F - 64.0 °F 64% 29.59 in 10.0 mi SSE 17.3 mph 27.6 mph 0.00 in Rain , Thunderstorm Light Thunderstorms and Rain
9:53 PM 75.9 °F - 64.9 °F 69% 29.56 in 7.0 mi SSE 12.7 mph 21.9 mph 0.04 in Rain , Thunderstorm Light Thunderstorms and Rain
10:53 PM 64.0 °F - 62.1 °F 93% 29.61 in 3.0 mi NW 12.7 mph 26.5 mph 0.06 in Rain , Thunderstorm Thunderstorms and Rain
11:00 PM 63.0 °F - 62.1 °F 97% 29.62 in 3.0 mi NNW 9.2 mph - 0.03 in Rain , Thunderstorm Thunderstorms and Rain
11:36 PM 64.0 °F - 63.0 °F 96% 29.60 in 1.0 mi WSW 15.0 mph 18.4 mph 0.09 in Rain , Thunderstorm Heavy Thunderstorms and Rain
11:40 PM 64.9 °F - 64.9 °F 100% 29.59 in 2.5 mi West 21.9 mph 27.6 mph 0.14 in Rain , Thunderstorm Thunderstorms and Rain
11:43 PM 66.0 °F - 66.0 °F 100% 29.59 in 4.0 mi West 15.0 mph 27.6 mph 0.16 in Rain , Thunderstorm Thunderstorms and Rain
11:53 PM 66.9 °F - 66.9 °F 100% 29.59 in 4.0 mi WSW 5.8 mph - 0.19 in Rain , Thunderstorm Thunderstorms and Rain
11:57 PM 66.0 °F - 66.0 °F 100% 29.58 in 1.8 mi NNW 8.1 mph - 0.03 in Rain , Thunderstorm Thunderstorms and Rain